Showing default

TRANSIT 5B-2, 704

Orbit data source: Space-Track

TRANSIT 5B-2, 704 is a payload satellite owned by USN BuWeps (US) in LEO that was launched on Thu, 05 Dec 1963 UTC via a THOR ABLESTAR launch vehicle from the Air Force Western Test Range (AFWTR). Payload-class satellites include a variety of spacecraft equipped with specific instruments for various scientific and technological missions. These include communications satellites like Starlink; space stations such as the ISS; scientific satellites like the Hubble; Earth observation satellites from companies like Planet Labs, Umbra, and HawkEye 360; GPS; miniature CubeSats for education and research; and military/defense satellites.

Loading next visibility...
Identifier
704, 1963-049B
Orbit
LEO
Country
Flag of USUS
Related business
Manufacturer
APL
Mission
Defense Navigation
Bus & Motor
TRANSIT 5, Unknown motor
Mass
75 kg wet, 75 kg dry
Launch date (UTC)
1963-12-05 (62 years ago)
Launch vehicle
THOR ABLESTAR
Launch site
Air Force Western Test Range (AFWTR)
Object type
Payload
Rocket body
Debris
Shape & HBR
Oct Cyl + Cyl + 1 Rod, 15.0 m
Radar Cross Section
0.334 m², Large (>1 m²)

Expand to show TLE details & history
Last TLE update: 13 hours ago

TLE from 13 hours ago
0 TRANSIT 5B-2
1 00704U 63049B   25258.21513737  .00000067  00000-0  94461-4 0  9995
2 00704  89.9133  72.6573 0035251  13.1901 160.3670 13.47088760 34304
Epoch: 2025-09-15T05:09Z
TLE epoch observation values (Epoch: 2025-09-15T05:09:47.868Z)
Latitude
6.2302°
Longitude
-179.22456°
Altitude
1,110.134 km
Speed
7.286 km/s
True Right ascension
16h 50m 35s
True Declination
6° 11' 42"
Sunlit
Object was in daylight at epoch
Visualization orbit readout
Latitude
Unknown
Longitude
Unknown
Altitude
Unknown
Speed
Unknown
Apparent Right ascension
Unknown
Apparent Declination
Unknown
Sunlit
N/A
Visualization observer readout
Local Sidereal Time
11:03:09
Azimuth
Unknown
Elevation
Unknown
Doppler factor
Unknown
Orbital elements
Apogee altitude
1,106.334 km
Perigee altitude
1,053.752 km
Semi-major axis
7,458.18 km
Eccentricity
0.00353
Inclination
89.9133°
RAAN
72.6573°
Arg. of periapsis
13.1901°
True anomaly
160.50216°
Mean anomaly
160.367°
Eccentric anomaly
160.43464°
Mean motion
3.36972 °/min
Orbital period
106.83 mins
BSTAR
0.000094461
Loading maneuver chart data...
Computing Atmospheric mass density...
Loading historical data...
Loading historical data...
Loading historical data...
Loading historical data...
Loading historical data...
Loading historical data...
Loading historical data...

Documentation

Showing up to 5 results
|